www.pogodaiklimat.ru

Погода и климат >> Архив погоды >> Антарктида >> Дюмон-д`Юрвиль


ПОГОДА на Дюмон-д`Юрвиле

  • Прогноз погоды на Дюмон-д`Юрвиле
  • Монитор погоды на Дюмон-д`Юрвиле

АРХИВ ПОГОДЫ на Дюмон-д`Юрвиле

Время (UTC), дата Ветер
(напр.,м/с)
 
Видим.   Явления Облачность Т
(С)
Тd
(С)
f
(%)
Тe
(С)
Тes
(С)
Комфортность P
(гПа)
Po
(гПа)
Тmin
(С)
Tmax
(С)
R
(мм)
R24
(мм)
S
(см)
03 13.06 В 11-17
{27}
20 км 9/0
[As trans Ci]
-12.0 -21.5 45 -24 -24 966.3 960.9
06 13.06 В 10
{27}
20 км 9/0
[As trans Ci]
-12.7 -21.5 48 -24 -24 966.1 960.7
09 13.06 В 6
{21}
20 км 9/0
[As trans]
-11.9 -21.0 47 -21 -21 967.4 962.0
12 13.06 В 6
{21}
н/о н/о -13.2 -20.3 55 -22 -22 968.6 963.2 -13.4 -11.3
15 13.06 В 6 н/о н/о -14.1 -19.3 65 -24 -24 970.2 964.7
18 13.06 В 5
{14}
н/о н/о -14.7 -20.6 61 -24 -24 971.9 966.4
21 13.06 В 7 20 км 5/0
[]
-15.7 -24.0 49 -26 -26 974.4 968.9
00 14.06 В 8 30 км 6/0
[Ac trans Ci fib]
-17.0 -26.4 44 -28 -28 977.3 971.7 -17.0 -12.8
03 14.06 В 6 30 км 5/0
[Ac trans Ci fib]
-17.5 -27.1 43 -27 -27 979.8 974.2
06 14.06 В 5 20 км 5/0
[Ac trans Ci fib]
-18.0 -27.6 43 -27 -27 981.9 976.3
09 14.06 В 4 40 км 1/0
[Ac trans]
-19.1 -27.6 47 -27 -27 984.3 978.6
12 14.06 В 5 н/о н/о -19.1 -28.1 45 -29 -29 986.3 980.6 -19.2 -16.8
15 14.06 Ю 2 н/о н/о -19.7 -28.6 45 -26 -26 988.1 982.4
18 14.06 ЮВ 4 н/о н/о -20.8 -29.9 44 -30 -30 989.7 984.0
21 14.06 ЮВ 3 20 км ясно -20.6 -30.2 42 -28 -28 991.2 985.5
00 15.06 ЮВ 4 30 км ясно -21.0 -30.6 42 -30 -30 993.2 987.4 -22.2 -18.6
03 15.06 Ю 3 30 км 1/0
[Ci]
-20.0 -30.4 39 -27 -27 993.9 988.2
06 15.06 В 3 20 км 10/0
[Ac und Ci]
-20.1 -29.7 42 -28 -28 994.6 988.9
09 15.06 В 4 20 км 10/0
[Ac und]
-19.9 -27.9 49 -29 -29 995.5 989.8
12 15.06 В 8 н/о н/о -18.3 -26.4 49 -30 -30 995.8 990.1 -21.3 -18.2
15 15.06 В 8-14
{17}
н/о н/о -19.2 -23.5 69 -32 -32 опасность
обморожения
994.3 988.6
18 15.06 В 12-19
{19}
н/о н/о -18.2 -21.5 75 -32 -32 опасность
обморожения
992.6 986.9
21 15.06 В 10-16
{18}
2000 м 10/10 800 м
[]
-13.6 -16.0 82 -25 -25 990.3 984.7
00 16.06 В 16-26
{27}
1500 м слаб. снег 10/10 1000 м
[Sc]
-11.5 -13.7 84 -25 -25 987.3 981.8 -19.3 -11.0
03 16.06 ЮВ 20-31
{31}
н/о {снег} н/о -10.6 -12.5 86 -25 -25 983.7 978.2
06 16.06 ЮВ 26-40
{40}
н/о н/о -11.1 -13.0 86 -27 -27 979.4 973.9
09 16.06 В 26-38
{40}
<100 м сильн. снег ?/? -12.7 -14.8 84 -29 -29 980.4 974.9
12 16.06 В 24-35
{40}
н/о н/о -13.6 -15.9 83 -30 -30 981.6 976.1 -14.4 -10.2
15 16.06 В 23-33
{38}
н/о н/о -14.0 -16.4 82 -30 -30 984.1 978.5
18 16.06 В 18-28
{38}
н/о н/о -13.5 -15.8 83 -28 -28 985.1 979.6
21 16.06 ЮВ 21-31
{31}
<100 м ?/? -14.5 -16.9 82 -30 -30 985.0 979.4
00 17.06 ЮВ 16-24
{31}
<100 м сильная метель ?/? -13.7 -16.0 83 -28 -28 985.9 980.3 -15.0 -13.1
03 17.06 В 12-18
{25}
500 м слаб. снег {метель} 10/10 1000 м
[Sc]
-13.3 -15.6 83 -26 -26 985.9 980.4
06 17.06 В 13-21
{25}
400 м снег {метель} 10/10 1000 м
[Sc]
-12.4 -14.5 84 -25 -25 985.4 979.9
09 17.06 В 12-17
{21}
400 м снег 10/10 800 м
[Sc]
-11.5 -13.5 85 -23 -23 985.5 980.0
12 17.06 В 12-19
{21}
н/о н/о -11.2 -13.2 85 -23 -23 984.5 979.0 -13.9 -10.8
15 17.06 В 9-15
{20}
н/о н/о -10.5 -12.4 86 -21 -21 984.2 978.7
18 17.06 В 7
{20}
н/о н/о -10.4 -12.3 86 -19 -19 984.1 978.6
21 17.06 СВ 4
{19}
1500 м 10/10 800 м
[]
-11.7 -13.9 84 -19 -19 983.9 978.4
00 18.06 В 6
{19}
2000 м слаб. снег 10/10 600 м
[Frnb]
-10.5 -12.5 85 -19 -19 984.3 978.8 -12.2 -10.0
03 18.06 В 7
{15}
3000 м слаб. снег 10/10 800 м
[Sc]
-9.7 -11.6 86 -19 -19 984.7 979.2
06 18.06 В 8 3000 м слаб. снег 10/10 800 м
[Sc]
-9.9 -11.8 86 -19 -19 986.1 980.6
09 18.06 В 4
{15}
15 км {снег} 6/0
[Ac lent Ci fib]
-10.4 -12.4 85 -18 -18 988.5 983.0
12 18.06 В 2
{15}
н/о н/о -11.6 -13.8 84 -15 -15 991.1 985.6 -12.1 -9.5
15 18.06 ЮВ 3 н/о н/о -12.7 -15.0 83 -18 -18 993.4 987.8
18 18.06 Ю 3 н/о н/о -13.5 -15.9 82 -20 -20 995.5 989.9
21 18.06 Ю 5 30 км 8/0
[]
-15.9 -18.6 80 -25 -25 996.8 991.1
00 19.06 Ю 3 20 км 9/9 1380 м
[Sc As trans]
-14.9 -18.0 77 -21 -21 999.0 993.3 -16.2 -11.6
03 19.06 ЮВ 2 20 км 10/10 1380 м
[Sc Ac As]
-14.8 -17.9 77 -19 -19 999.7 994.0
06 19.06 В 2 10 км 10/10 1000 м
[Sc Ac As]
-14.9 -18.3 75 -19 -19 1000.6 994.9
09 19.06 В 3 10 км 10/0
[Ac As]
-16.0 -19.4 75 -23 -23 1000.7 995.0
12 19.06 В 8 н/о н/о -16.5 -19.9 75 -28 -28 1000.1 994.4 -16.5 -14.5
15 19.06 В 9
{16}
н/о н/о -17.8 -20.6 79 -30 -30 998.5 992.8
18 19.06 В 9
{17}
н/о н/о -17.4 -20.2 79 -29 -29 996.7 991.0
21 19.06 В 7
{15}
1500 м 10/10 480 м
[]
-15.9 -18.4 81 -26 -26 994.6 988.9
00 20.06 СВ 5
{15}
400 м снег 10/10 90 м
[Frnb]
-16.2 -18.7 81 -25 -25 994.0 988.3 -17.9 -14.2

 

Местоположение метеостанции Дюмон-д`Юрвиль (Антарктида): широта -66.66 долгота 140.01 высота над уровнем моря 43 м.

В архиве по умолчанию представлена погода на Дюмон-д`Юрвиле за последнюю неделю. Архивные данные за месяц целиком и за предыдущие месяцы, начиная с января 2011 года, Вы можете получить, выбрав интересующий диапазон дат из раскрывающегося списка и нажав кнопку "Ввод!".


*Определитесь, кто Вы:
робот инопланетянин человек

Внимание! Время в таблицах - всемирное. Для получения местного времени необходимо прибавить поправку, которая равна 0 ч.

Смотрите также архив погоды в соседних городах и на ближайших метеорологических станциях:

Погода на D-47 (Антарктида) (98 км)
Погода в Sitry Point (Антарктида) (651 км)
Погода на Mid Point (Антарктида) (691 км)
Погода на Ленинградской (Антарктида) (860 км)
Погода на Dome C II (Антарктида) (1110 км)
Погода на Острове Маккуори (Тасмания, Австралия) (1688 км)

Пояснения к столбцам:

Ветер - указаны скорость ветра в м/с - средняя за 10 мин, порывы в срок и между сроками (в фигурных скобках) и направление, откуда дует ветер: С - северный, СВ - северо-восточный, В - восточный, ЮВ - юго-восточный, Ю - южный, ЮЗ - юго-западный, З - западный, СЗ - северо-западный.
Видимость - горизонтальная дальность видимости в метрах или километрах. При видимости от 1 до 10 км при отсутствии осадков обычно наблюдается дымка, при ухудшении видимости до 1 км и менее - туман. В сухую погоду видимость может ухудшаться дымом, пылью или мглою.
Явления - указаны атмосферные явления, наблюдавшиеся в срок или в последний час перед сроком; фигурными скобками обозначены явления, наблюдавшиеся между сроками (за 1-3 часа до срока); квадратными скобками обозначены град или гололедные отложения с указанием их диаметра в мм.
Облачность - указаны через наклонную черту общая и нижняя облачность в баллах и высота нижней границы облаков в метрах; квадратными скобками обозначены формы облаков: Ci - перистые, Cs - перисто-слоистые, Cc - перисто-кучевые, Ac - высококучевые, As - высокослоистые, Sc - слоисто-кучевые, Ns - слоисто-дождевые, Cu - кучевые, Cb - кучево-дождевые. Подробнее классификацию облаков см. в Атласе облаков (PDF).
T - Температура воздуха - температура, измеренная на высоте 2 м над землей.
Td - Температура точки росы - температура, при понижении до которой содержащийся в воздухе водяной пар достигнет насыщения.
f - Относительная влажность воздуха - влажноcть воздуха, измеренная на высоте 2 м над землей.
Te - Эффективная температура - температура, которую ощущает одетый по сезону человек в тени. Характеристика душности погоды. При расчете учитывается влияние влажности воздуха и скорости ветра на теплоощущения человека.
Tes - Эффективная температура на солнце - температура, которую ощущает человек, с поправкой на солнечный нагрев. Характеристика знойности погоды. Зависит от высоты солнца над горизонтом, облачности и скорости ветра. Ночью, в пасмурную погоду, а также при ветре 12 м/с и более поправка равна нулю.
P - Атмосферное давление - приведенное к уровню моря атмосферное давление.
Po - Атмосферное давление - измеренное на уровне метеостанции атмосферное давление.
Tmin - Минимальная температура - минимум температуры воздуха на высоте 2 м над землей.
Tmax - Максимальная температура - максимум температуры воздуха на высоте 2 м над землей.
R - Количество осадков - Количество выпавших осадков за период времени, мм. При наведении курсора мыши на число - период времени, за который выпало указанное количество осадков.
R24 - Количество осадков - Количество выпавших осадков за 24 часа, мм.
S - Снежный покров - Высота снежного покрова, см. При наведении курсора мыши на число - состояние снежного покрова и степень покрытия местности в баллах.